Location: Street
(51.1247°N, 2.7429°W)
Time: 08:35:00
(UTC+00:00)

COSMOS 2535 DEB - Visible Passes

Search period start: 03 December 2023 00:00
Search period end: 13 December 2023 00:00
Orbit: 569 x 942 km, 97.3° (Epoch: 02 December)

Date Brightness Start Highest point End Pass type
(mag) Time Alt. Az. Time Alt. Az. Time Alt. Az.
03 Dec ? 17:29:03 10° N 17:34:15 43° WNW 17:38:59 10° SW visible
04 Dec ? 16:48:19 10° NNE 16:53:49 86° WNW 16:58:43 10° SSW visible
04 Dec ? 18:28:18 10° NNW 18:31:46 17° NW 18:35:02 10° W visible
05 Dec ? 17:46:23 10° N 17:51:06 31° WNW 17:55:25 10° WSW visible
06 Dec ? 17:04:20 10° N 17:09:36 63° WNW 17:14:20 10° SSW visible
06 Dec ? 18:44:52 10° NNW 18:47:13 13° NW 18:49:29 10° WNW visible
07 Dec ? 18:01:20 10° N 18:05:29 24° WNW 18:09:20 10° WSW visible
08 Dec ? 17:17:55 10° N 17:22:55 48° WNW 17:27:26 10° SW visible
09 Dec ? 16:34:19 10° NNE 16:39:29 77° ESE 16:44:05 10° S visible
09 Dec ? 18:13:54 10° NNW 18:17:26 19° NW 18:20:46 10° W visible
10 Dec ? 17:29:07 10° N 17:33:47 38° WNW 17:38:03 10° SW visible
11 Dec ? 16:44:14 10° NNE 16:49:16 87° WNW 16:53:48 10° SSW visible
11 Dec ? 18:24:05 10° NNW 18:26:59 16° NW 18:29:45 10° W visible
12 Dec ? 17:37:53 10° N 17:42:15 32° WNW 17:46:15 10° SW visible
